Weather in Malaya Pera

Russia / Komi Republic     64°10′51″N   54°49′56″E
temp.,
°C
wind,
m/s
gust,
m/s
humid.,
%
clouds,
%
prec.,
mm/h
press.,
hPa
HPBL,
m
28 february, sun
sun2800:00−21sse239437 0.0 101441
03:00−21sse259462 0.0 101494
06:00−22sse2596100 0.0 1014113
09:00−19s369597 0.0 1014239
12:00−15s3593100 0.0 1014322
15:00−14ssw3694100 0.1 1014398
18:00−15ssw389699 0.2 1014293
21:00−15sw389592 0.3 1015299
1 march, mon
mon100:00−16ssw399688 0.1 1015271
03:00−16ssw499593 0.2 1014276
06:00−17ssw41196100 0.1 1011272
09:00−15ssw51195100 0.1 1009336
12:00−12ssw61492100 0.3 1005480
15:00−10ssw71693100 0.7 1002647
18:00−9ssw61393100 1.5 998761
21:00−9ssw61394100 2.8 996656
2 march, tue
tue200:00−8ssw51294100 1.3 995556
03:00−8s41095100 2.2 993452
06:00−9s4994100 0.6 992402
09:00−9s4894100 0.8 992405
12:00−8sse3794100 0.5 991439
15:00−8sse3695100 1.2 991430
18:00−9se2596100 0.9 991254
21:00−10e2396100 1.3 99279
3 march, wed
wed300:00−10ene1297100 0.6 99270
03:00−11n1297100 1.6 994114
06:00−10nnw2897100 0.8 994340
09:00−9nw4794100 1.2 995394
12:00−9nw3695100 0.1 996403
15:00−9nw3793100 0.2 996594
18:00−12nw229792 0.1 99621
21:00−11wsw129794 0.2 99721
4 march, thu
thu400:00−11w239793 0.2 99665
03:00−13wsw229794 0.3 99634
06:00−15ssw239879 0.1 99537
09:00−13ssw249784 0.1 993172
12:00−9sse239598 0.0 992292
15:00−8se369299 0.1 992537
18:00−13ese369767 0.0 991119
21:00−15e369784 0.0 991120